User: anonymous   Login
Location: Irma
(52.9170°N, 111.2330°W)
Time: 09:16:58
(UTC-07:00)
Language:

Cosmos 2279 Rocket - Orbit

View from above orbital plane
View from above orbital plane
View from above satellite
View from above satellite

Ground track
Ground track

The orbit data is extracted from the following two-line orbital elements,

1 23093U 94024B   16337.91965266 +.00000037 +00000-0 +22101-4 0  9990
2 23093 082.9481 260.4504 0009656 186.7624 173.3405 13.77706307604163
Epoch (UTC): 02 December 2016 22:04:17
Eccentricity: 0.0009656
inclination: 82.9481°
perigee height: 965 km
apogee height: 979 km
right ascension of ascending node: 260.4504°
argument of perigee: 186.7624°
revolutions per day: 13.77706307
mean anomaly at epoch: 173.3405°
orbit number at epoch: 60416

The dashed part of the orbit path shows where the satellite is in the earth's shadow,  

DLR